Skip Page Navigation
NASA JPL Caltech
NASA Logo - Jet Propulsion Laboratory + View the NASA Portal
+ Near-Earth Object (NEO) Program
Search JPL
JPL Home Earth Solar System Stars & Galaxies Technology
JPL Solar System Dynamics
BODIES ORBITS EPHEMERIDES TOOLS PHYSICAL DATA DISCOVERY FAQ SITE MAP
JPL Small-Body Database Browser
Search: [ help ]  
11325 Slavicky (1995 SG)
Classification: Main-belt Asteroid          SPK-ID: 2011325
Ephemeris | Orbit Diagram | Orbital Elements | Physical Parameters | Discovery Circumstances | Close-Approach Data ]

[ show orbit diagram ]
Orbital Elements at Epoch 2457600.5 (2016-Jul-31.0) TDB
Reference: JPL 15 (heliocentric ecliptic J2000)
 Element Value Uncertainty (1-sigma)   Units 
e .1351512797843469 4.1907e-08  
a 2.540992509058188 1.3786e-08 au
q 2.197574119536535 1.0873e-07 au
i 1.351745088450767 4.3952e-06 deg
node 236.1499988333724 0.00028728 deg
peri 166.4685485861199 0.00028874 deg
M 21.8803314151702 2.9239e-05 deg
tp 2457510.580289695991
(2016-May-02.08028970)
0.00011986 JED
period 1479.460941208579
4.05
1.204e-05
3.296e-08
d
yr
n .2433318717464175 1.9802e-09 deg/d
Q 2.884410898579841 1.5649e-08 au
  Orbit Determination Parameters
   # obs. used (total)      841  
   data-arc span      8854 days (24.24 yr)  
   first obs. used      1991-10-08  
   last obs. used      2016-01-04  
   planetary ephem.      DE431  
   SB-pert. ephem.      SB431-BIG16  
   condition code      0  
   fit RMS      .53816  
   data source      ORB  
   producer      Otto Matic  
   solution date      2016-Feb-25 18:44:43  

Additional Information
 Earth MOID = 1.20468 au 
 Jupiter MOID = 2.50038 au 
 T_jup = 3.432 
[ show covariance matrix ]

Ephemeris | Orbit Diagram | Orbital Elements | Physical Parameters | Discovery Circumstances | Close-Approach Data ]

Physical Parameter Table
Parameter Symbol Value Units Sigma Reference Notes
absolute magnitude H 15.4 mag n/a MPO299045  

11325 Slavický           Discovered 1995 Sept. 17 by L. Šarounová at Ondřejov.
Klement Slavický (1910-1999) was an outstanding Czech composer, whose personal musical expression was rooted in the folk-music culture of Moravia. He was also appreciated for his life-long high moral standards. In 1985 Slavický was awarded with the Golden Medal of the United Nations for his fourth Symphonietta.
NOTE: some special characters may not display properly (any characters within {} are an attempt to place the proper accent above a character)
Reference: 19991123/MPCPages.arcLast Updated: 2010-06-11

[ show close-approach data ]
Ephemeris | Orbit Diagram | Orbital Elements | Physical Parameters | Discovery Circumstances | Close-Approach Data ]
ABOUT SSD CREDITS/AWARDS PRIVACY/COPYRIGHT GLOSSARY LINKS
FirstGov 2016-May-04 01:53 UT
(server date/time)  
NASA Home Page
Site Manager:   Ryan S. Park
Webmaster  Alan B. Chamberlin